• In Austria
  • List of Countries
  • For 7 days
  • Water Temperature
  • Satellite Maps
  • Weather Map
  • News
  • Weather Widgets
  • user-avatar
    Login

    Hourly Weather Barra

    Today, 12 December, Tuesday

    Time Temperature Precipitation Wind Pressure Humidity
    00:00 +24°C° 0 mm 2 mps 748 mmHg 88%
    01:00 +24°C° 0 mm 2 mps 747 mmHg 90%
    02:00 +24°C° 0 mm 2 mps 747 mmHg 91%
    03:00 +23°C° 0 mm 2 mps 747 mmHg 93%
    04:00 +23°C° 0 mm 2 mps 747 mmHg 94%
    05:00 +24°C° 0 mm 2 mps 747 mmHg 89%
    06:00 +25°C° 0 mm 2 mps 748 mmHg 84%
    07:00 +26°C° 0 mm 3 mps 748 mmHg 79%
    08:00 +28°C° 0.1 mm 3 mps 748 mmHg 68%
    09:00 +30°C° 0.1 mm 4 mps 748 mmHg 58%
    10:00 +33°C° 0.1 mm 4 mps 748 mmHg 47%
    11:00 +34°C° 0.1 mm 4 mps 747 mmHg 45%
    12:00 +34°C° 0.1 mm 5 mps 747 mmHg 42%
    13:00 +35°C° 0.1 mm 5 mps 747 mmHg 40%
    14:00 +34°C° 0 mm 5 mps 746 mmHg 42%
    15:00 +34°C° 0 mm 5 mps 746 mmHg 44%
    16:00 +33°C° 0 mm 4 mps 746 mmHg 46%
    17:00 +30°C° 0 mm 4 mps 746 mmHg 54%
    18:00 +29°C° 0 mm 4 mps 747 mmHg 63%
    19:00 +27°C° 0 mm 3 mps 747 mmHg 71%
    20:00 +26°C° 0.4 mm 3 mps 747 mmHg 75%
    21:00 +25°C° 0.4 mm 3 mps 747 mmHg 79%
    22:00 +25°C° 0.4 mm 3 mps 748 mmHg 84%
    23:00 +25°C° 0.3 mm 3 mps 748 mmHg 85%

    Tomorrow, 13 December, Wednesday

    Time Temperature Precipitation Wind Pressure Humidity
    00:00 +24°C° 0.3 mm 3 mps 747 mmHg 86%
    01:00 +24°C° 0.3 mm 2 mps 747 mmHg 87%
    02:00 +24°C° 0 mm 2 mps 747 mmHg 87%
    03:00 +23°C° 0 mm 2 mps 747 mmHg 88%
    04:00 +22°C° 0 mm 3 mps 746 mmHg 89%
    05:00 +24°C° 0 mm 3 mps 747 mmHg 85%
    06:00 +25°C° 0 mm 3 mps 747 mmHg 81%
    07:00 +26°C° 0 mm 3 mps 747 mmHg 77%
    08:00 +28°C° 0 mm 4 mps 747 mmHg 67%
    09:00 +30°C° 0 mm 4 mps 747 mmHg 57%
    10:00 +33°C° 0 mm 5 mps 747 mmHg 47%
    11:00 +34°C° 0 mm 5 mps 747 mmHg 44%
    12:00 +34°C° 0 mm 5 mps 746 mmHg 40%
    13:00 +35°C° 0 mm 5 mps 746 mmHg 37%
    14:00 +34°C° 0 mm 5 mps 746 mmHg 38%
    15:00 +34°C° 0 mm 4 mps 745 mmHg 39%
    16:00 +34°C° 0 mm 4 mps 745 mmHg 40%
    17:00 +32°C° 0 mm 4 mps 745 mmHg 50%
    18:00 +28°C° 0 mm 4 mps 745 mmHg 61%
    19:00 +26°C° 0 mm 3 mps 746 mmHg 72%
    20:00 +26°C° 0 mm 3 mps 746 mmHg 77%
    21:00 +25°C° 0 mm 2 mps 747 mmHg 83%
    22:00 +24°C° 0 mm 2 mps 748 mmHg 88%
    23:00 +24°C° 0 mm 2 mps 747 mmHg 89%

    Day after tomorrow, 14 December, Thursday

    Time Temperature Precipitation Wind Pressure Humidity
    00:00 +24°C° 0 mm 2 mps 747 mmHg 90%
    01:00 +24°C° 0 mm 2 mps 747 mmHg 91%
    02:00 +24°C° 0.1 mm 2 mps 747 mmHg 92%
    03:00 +24°C° 0.1 mm 2 mps 746 mmHg 93%
    04:00 +24°C° 0.1 mm 2 mps 746 mmHg 93%
    05:00 +24°C° 0 mm 2 mps 746 mmHg 90%
    06:00 +25°C° 0 mm 2 mps 747 mmHg 86%
    07:00 +26°C° 0 mm 2 mps 747 mmHg 82%
    08:00 +28°C° 0 mm 3 mps 747 mmHg 69%
    09:00 +31°C° 0 mm 3 mps 747 mmHg 55%
    10:00 +34°C° 0 mm 3 mps 747 mmHg 41%
    11:00 +35°C° 0 mm 3 mps 746 mmHg 39%
    12:00 +35°C° 0 mm 4 mps 746 mmHg 36%
    13:00 +36°C° 0 mm 4 mps 745 mmHg 34%
    14:00 +36°C° 0 mm 4 mps 745 mmHg 36%
    15:00 +35°C° 0 mm 4 mps 744 mmHg 39%
    16:00 +35°C° 0 mm 4 mps 744 mmHg 41%
    17:00 +31°C° 0 mm 3 mps 744 mmHg 51%
    18:00 +29°C° 0 mm 3 mps 745 mmHg 61%
    19:00 +27°C° 0 mm 2 mps 745 mmHg 71%
    20:00 +27°C° 0 mm 2 mps 746 mmHg 76%
    21:00 +26°C° 0 mm 2 mps 746 mmHg 81%
    22:00 +25°C° 0 mm 2 mps 747 mmHg 86%
    23:00 +25°C° 0 mm 2 mps 746 mmHg 88%

    15 December, Friday

    Time Temperature Precipitation Wind Pressure Humidity
    00:00 +25°C° 0 mm 2 mps 746 mmHg 90%
    01:00 +24°C° 0 mm 2 mps 746 mmHg 91%
    02:00 +24°C° 0 mm 2 mps 745 mmHg 93%
    03:00 +24°C° 0 mm 2 mps 745 mmHg 94%
    04:00 +24°C° 0 mm 2 mps 745 mmHg 95%
    05:00 +25°C° 0 mm 2 mps 745 mmHg 91%
    06:00 +25°C° 0 mm 2 mps 746 mmHg 87%
    07:00 +26°C° 0 mm 1 mps 746 mmHg 83%
    08:00 +29°C° 0 mm 2 mps 746 mmHg 70%
    09:00 +31°C° 0 mm 2 mps 746 mmHg 57%
    10:00 +35°C° 0 mm 2 mps 746 mmHg 45%
    11:00 +35°C° 0 mm 3 mps 746 mmHg 41%
    12:00 +36°C° 0 mm 3 mps 745 mmHg 36%
    13:00 +37°C° 0 mm 3 mps 745 mmHg 32%
    14:00 +36°C° 0 mm 3 mps 744 mmHg 34%
    15:00 +36°C° 0 mm 4 mps 744 mmHg 36%
    16:00 +35°C° 0 mm 4 mps 743 mmHg 38%
    17:00 +33°C° 0 mm 3 mps 744 mmHg 47%
    18:00 +30°C° 0 mm 3 mps 744 mmHg 57%
    19:00 +27°C° 0 mm 3 mps 745 mmHg 67%
    20:00 +27°C° 0 mm 3 mps 745 mmHg 73%
    21:00 +26°C° 0 mm 3 mps 746 mmHg 79%
    22:00 +25°C° 0 mm 2 mps 747 mmHg 85%
    23:00 +25°C° 0 mm 3 mps 746 mmHg 86%

    16 December, Saturday

    Time Temperature Precipitation Wind Pressure Humidity
    00:00 +25°C° 0 mm 3 mps 746 mmHg 86%
    01:00 +25°C° 0 mm 3 mps 746 mmHg 87%
    02:00 +25°C° 0 mm 3 mps 746 mmHg 88%
    03:00 +25°C° 0 mm 3 mps 746 mmHg 90%
    04:00 +24°C° 0 mm 2 mps 745 mmHg 91%
    05:00 +25°C° 0 mm 2 mps 746 mmHg 86%
    06:00 +26°C° 0 mm 2 mps 747 mmHg 81%
    07:00 +27°C° 0 mm 2 mps 747 mmHg 77%
    08:00 +29°C° 0 mm 3 mps 747 mmHg 68%
    09:00 +30°C° 0 mm 3 mps 747 mmHg 59%
    10:00 +33°C° 0 mm 3 mps 747 mmHg 49%
    11:00 +34°C° 0.1 mm 3 mps 747 mmHg 46%
    12:00 +35°C° 0.1 mm 3 mps 746 mmHg 43%
    13:00 +36°C° 0.1 mm 4 mps 746 mmHg 40%
    14:00 +36°C° 0 mm 4 mps 745 mmHg 42%
    15:00 +35°C° 0 mm 4 mps 745 mmHg 43%
    16:00 +35°C° 0 mm 4 mps 744 mmHg 45%
    17:00 +33°C° 0 mm 4 mps 745 mmHg 55%
    18:00 +30°C° 0 mm 3 mps 745 mmHg 64%
    19:00 +28°C° 0 mm 3 mps 745 mmHg 74%
    20:00 +27°C° 0 mm 3 mps 746 mmHg 80%
    21:00 +26°C° 0 mm 3 mps 746 mmHg 86%
    22:00 +25°C° 0 mm 3 mps 747 mmHg 93%
    23:00 +26°C° 0.1 mm 3 mps 746 mmHg 92%

    17 December, Sunday

    Time Temperature Precipitation Wind Pressure Humidity
    00:00 +26°C° 0.1 mm 3 mps 746 mmHg 92%
    01:00 +26°C° 0.1 mm 3 mps 746 mmHg 92%
    02:00 +26°C° 0.1 mm 3 mps 745 mmHg 92%
    03:00 +26°C° 0.1 mm 3 mps 745 mmHg 92%
    04:00 +26°C° 0.1 mm 3 mps 745 mmHg 92%
    05:00 +26°C° 0.1 mm 3 mps 746 mmHg 91%
    06:00 +27°C° 0.1 mm 4 mps 746 mmHg 89%
    07:00 +27°C° 0.1 mm 4 mps 747 mmHg 87%
    08:00 +29°C° 0.2 mm 4 mps 747 mmHg 79%
    09:00 +30°C° 0.2 mm 4 mps 747 mmHg 70%
    10:00 +33°C° 0.2 mm 4 mps 747 mmHg 62%
    11:00 +34°C° 0.2 mm 5 mps 746 mmHg 57%
    12:00 +35°C° 0.2 mm 5 mps 746 mmHg 52%
    13:00 +36°C° 0.2 mm 5 mps 745 mmHg 47%
    14:00 +35°C° 0.4 mm 5 mps 745 mmHg 48%
    15:00 +35°C° 0.4 mm 5 mps 744 mmHg 50%
    16:00 +34°C° 0.4 mm 5 mps 744 mmHg 51%
    17:00 +33°C° 0.4 mm 4 mps 744 mmHg 60%
    18:00 +30°C° 0.4 mm 4 mps 745 mmHg 69%
    19:00 +28°C° 0.4 mm 4 mps 745 mmHg 78%
    20:00 +28°C° 0.2 mm 4 mps 746 mmHg 82%
    21:00 +27°C° 0.2 mm 3 mps 746 mmHg 86%
    22:00 +27°C° 0.2 mm 3 mps 747 mmHg 90%
    23:00 +27°C° 0.2 mm 4 mps 746 mmHg 91%
    Show more